www.pogodaiklimat.ru

Погода и климат >> Архив погоды >> Филиппины >> Гуиуан


ПОГОДА в Гуиуане

  • Прогноз погоды в Гуиуане
  • Монитор погоды в Гуиуане

АРХИВ ПОГОДЫ в Гуиуане

Время (UTC), дата Ветер
(напр.,м/с)
 
Видим.   Явления Облачность Т
(С)
Тd
(С)
f
(%)
Тe
(С)
Тes
(С)
Комфортность P
(гПа)
Po
(гПа)
Тmin
(С)
Tmax
(С)
R
(мм)
R24
(мм)
S
(см)
15 12.08 З 5 16 км мгла {туман} 6/4 450 м
[Cb calv Cs]
+28.0 +25.1 84 +40 +40 очень
душно
1012.6 1005.7
18 12.08 З 3 16 км мгла {туман} 9/3 540 м
[Cu hum Cs]
+27.0 +24.9 88 +39 +39 очень
душно
1009.4 1002.6
21 12.08 З 2 16 км мгла {туман} 9/3 540 м
[Cu hum Cs]
+27.2 +25.9 93 +41 +41 опасность
перегрева
1009.4 1002.5
00 13.08 З 5 18 км мгла {туман} 9/4 450 м
[Cb calv Ac As Cs]
+28.8 +24.8 79 +41 +43 опасность
перегрева
1010.4 1003.6 +26.0
03 13.08 З 7 20 км мгла {туман} 8/3 540 м
[Cu hum Ac trans Cs]
+31.0 +26.4 77 +47 +50 опасность
перегрева
1010.2 1003.4
06 13.08 З 6 20 км мгла {туман} 6/3 540 м
[Cu hum Ac As Cs]
+32.2 +26.3 71 +48 +52 опасность
перегрева
1009.2 1002.4
09 13.08 З 6 18 км мгла {туман} 5/3 540 м
[Cu hum Ac As Cs]
+31.0 +26.4 77 +47 +48 опасность
перегрева
1009.3 1002.5
12 13.08 З 5 16 км мгла {туман} 6/1 540 м
[Cu hum Cs]
+28.0 +25.9 88 +42 +42 опасность
перегрева
1011.5 1004.7 +33.0
15 13.08 З 4 16 км мгла {туман} 6/1 540 м
[Cu hum Ac trans Cs]
+27.4 +25.8 91 +41 +41 опасность
перегрева
1012.6 1005.7
18 13.08 З 2 16 км мгла {туман} 9/3 540 м
[Cu hum Ac trans Cs]
+27.2 +25.6 91 +40 +40 очень
душно
1011.2 1004.4
21 13.08 З 3 16 км мгла {туман} 8/1 540 м
[Cu hum Ac trans Cs]
+27.0 +25.4 91 +39 +39 очень
душно
1011.2 1004.3
00 14.08 З 6 18 км мгла {туман} 5/1 540 м
[Cu hum Ac As Cs]
+29.0 +25.1 80 +42 +44 опасность
перегрева
1012.4 1005.6 +26.0
03 14.08 З 7 18 км мгла {туман} 8/3 540 м
[Cu hum Ac As Cs]
+31.4 +27.1 78 +49 +52 опасность
перегрева
1010.9 1004.1
06 14.08 З 3 20 км мгла {туман} 5/3 540 м
[Cu med, cong Ac As]
+32.4 +26.8 72 +50 +57 опасность
перегрева
1010.2 1003.4
09 14.08 З 5 18 км мгла {туман} 6/4 450 м
[Cb calv Ac As Cs]
+30.4 +27.3 84 +49 +49 опасность
перегрева
1010.3 1003.5
12 14.08 ЮЗ 3 16 км мгла {туман} 8/3 540 м
[Cu hum Ac trans Cs]
+29.3 +27.1 88 +46 +46 опасность
перегрева
1012.7 1005.9 +34.4
15 14.08 ЮЗ 3 16 км мгла {туман} 8/3 540 м
[Cu hum Ac As Cs]
+28.0 +25.8 88 +42 +42 опасность
перегрева
1012.9 1006.0
18 14.08 ЮЗ 4 16 км мгла {туман} 8/4 450 м
[Cb calv Cs]
+27.8 +26.2 91 +42 +42 опасность
перегрева
1012.0 1005.2
21 14.08 З 4 16 км мгла {туман} 8/3 540 м
[Cu hum Cs]
+27.4 +26.1 93 +41 +41 опасность
перегрева
1012.0 1005.1
00 15.08 З 5 20 км мгла {туман} 8/3 540 м
[Cu hum Cs]
+29.2 +25.6 81 +43 +46 опасность
перегрева
1013.1 1006.3 +26.5
03 15.08 З 3 20 км мгла {туман} 9/3 540 м
[Cu hum Ac As Cs]
+31.6 +26.9 76 +49 +56 опасность
перегрева
1012.1 1005.3
06 15.08 З 4 20 км мгла {туман} 8/3 540 м
[Cu hum Cs]
+32.7 +26.0 68 +48 +54 опасность
перегрева
1010.2 1003.4
09 15.08 З 3 20 км мгла {туман} 8/3 540 м
[Cu hum Cs]
+31.6 +28.4 83 +53 +53 опасность
перегрева
1010.6 1003.8
12 15.08 Ю 2 18 км мгла {туман} 6/1 540 м
[Cu hum Cs]
+28.8 +26.2 86 +44 +44 опасность
перегрева
1013.2 1006.4 +34.5
15 15.08 ЮВ 1 18 км мгла {туман} 9/1 540 м
[Cu hum Cs]
+28.6 +26.5 88 +44 +44 опасность
перегрева
1013.5 1006.6
18 15.08 ЮЗ 2 16 км мгла {туман} 9/4 540 м
[Cu med, cong Cs]
+27.8 +26.2 91 +42 +42 опасность
перегрева
1012.8 1006.0
21 15.08 ЮЗ 4 16 км мгла {туман} 9/3 540 м
[Cu hum Ac As Cs]
+26.8 +24.9 89 +38 +38 очень
душно
1012.8 1005.9
00 16.08 ЮЗ 4 20 км мгла {туман} 9/3 540 м
[Cu med, cong Ac As Cs]
+29.4 +27.5 90 +48 +50 опасность
перегрева
1013.1 1006.3 +26.4
03 16.08 З 6 20 км мгла {туман} 8/3 540 м
[Cu med, cong Ac As Cs]
+31.6 +26.7 75 +49 +52 опасность
перегрева
1012.6 1005.8
06 16.08 ЮЗ 4 20 км мгла {туман} 8/3 540 м
[Cu med, cong Cs]
+33.2 +26.7 69 +51 +57 опасность
перегрева
1011.8 1005.0
09 16.08 З 4 20 км мгла {туман} 6/3 540 м
[Cu hum Cs]
+32.0 +26.1 71 +48 +48 опасность
перегрева
1011.6 1004.8
12 16.08 З 3 18 км мгла {туман} 8/3 540 м
[Cu hum Cs]
+28.0 +25.4 86 +41 +41 опасность
перегрева
1013.8 1007.0
15 16.08 З 3 16 км мгла {туман} 8/3 540 м
[Cu hum Cs]
+28.8 +25.1 80 +42 +42 опасность
перегрева
1014.4 1007.5
18 16.08 З 3 н/о мгла {туман} 6/1 540 м
[Cu hum Cs]
+27.5 +26.1 92 +41 +41 опасность
перегрева
1013.2 1006.4
21 16.08 З 4 16 км мгла {туман} 8/4 450 м
[Cb cap Ac As Cs]
+27.0 +26.0 94 +40 +40 очень
душно
1012.8 1005.9
00 17.08 З 4 18 км мгла {туман} 6/3 540 м
[Cu med, cong Ac trans Cs]
+28.5 +25.8 85 +42 +45 опасность
перегрева
1013.5 1006.7 +26.0
03 17.08 З 2 20 км мгла {туман} 8/1 540 м
[Cu hum Ac trans Cs]
+32.0 +26.9 74 +49 +61 опасность
перегрева
1013.7 1006.9
06 17.08 ЮЗ 3 20 км мгла {туман} 6/3 540 м
[Cu med, cong Ac trans Cs]
+34.2 +29.2 75 +58 +65 опасность
перегрева
1011.1 1004.3
09 17.08 З 3 20 км мгла {туман} 5/1 540 м
[Cu hum Ac As Cs]
+31.6 +29.0 86 +55 +55 опасность
перегрева
1011.1 1004.3
12 17.08 С 3 18 км мгла {туман} 6/3 540 м
[Cu hum Cs]
+28.0 +24.3 80 +39 +39 очень
душно
1013.0 1006.2 +36.0
15 17.08 Ю 3 16 км осадки на расстоянии {туман} 9/5 450 м
[Cb cap Cs]
+27.8 +24.1 80 +39 +39 очень
душно
1013.2 1006.3
18 17.08 З 3 16 км мгла {туман} 6/3 540 м
[Cu med, cong Cs]
+27.3 +24.2 83 +38 +38 очень
душно
1012.8 1006.0
21 17.08 З 3 16 км мгла {туман} 5/3 540 м
[Cu med, cong Cs]
+26.4 +24.5 89 +37 +37 очень
душно
1012.6 1005.7
00 18.08 З 3 18 км мгла {туман} 6/3 540 м
[Cu med, cong Ac As Cs]
+28.5 +25.9 86 +43 +46 опасность
перегрева
1013.5 1006.6 +26.4
03 18.08 З 8 20 км мгла {туман} 6/3 540 м
[Cu med, cong Cs]
+31.5 +25.7 71 +46 +49 опасность
перегрева
1013.4 1006.6
06 18.08 З 7 20 км мгла {туман} 6/4 450 м
[Cb cap Cs]
+34.0 +25.4 61 +48 +51 опасность
перегрева
1010.5 1003.7
09 18.08 З 4 18 км мгла {туман} 5/1 540 м
[Cu hum Cs]
+31.0 +26.1 75 +46 +47 опасность
перегрева
1009.8 1003.0
12 18.08 З 3 16 км мгла {туман} 5/1 540 м
[Cu hum Cs]
+27.4 +25.6 90 +40 +40 очень
душно
1011.4 1004.6 +35.0
15 18.08 З 3 16 км мгла {туман} 5/3 540 м
[Cu hum Cs]
+27.6 +25.8 90 +41 +41 опасность
перегрева
1011.7 1004.8
18 18.08 СЗ 2 16 км мгла {туман} 4/1 540 м
[Cu hum Ci fib]
+26.8 +25.2 91 +39 +39 очень
душно
1010.4 1003.6
21 18.08 СЗ 2 16 км мгла {туман} 5/3 450 м
[Cb cap Cs]
+26.2 +24.9 93 +37 +37 очень
душно
1010.3 1003.4
00 19.08 З 8 18 км мгла {туман} 6/3 540 м
[Cu hum Cs]
+28.5 +26.2 87 +43 +44 опасность
перегрева
1011.4 1004.6 +26.0
03 19.08 З 6 20 км мгла {туман} 6/3 540 м
[Cu hum Ac trans Cs]
+32.0 +26.1 71 +48 +52 опасность
перегрева
1010.5 1003.7
06 19.08 З 7 20 км мгла {туман} 6/4 450 м
[Cb cap Cs]
+34.0 +26.2 64 +50 +53 опасность
перегрева
1008.6 1001.8
09 19.08 З 4 18 км в посл. час гроза {туман} 9/5 450 м
[Cb cap Ac As Cs]
+31.0 +26.8 78 +48 +48 опасность
перегрева
1008.6 1001.8

 

Местоположение метеостанции Гуиуан (Филиппины): широта 11.03 долгота 125.73 высота над уровнем моря 60 м.

В архиве по умолчанию представлена погода в Гуиуане за последнюю неделю. Архивные данные за месяц целиком и за предыдущие месяцы, начиная с января 2011 года, Вы можете получить, выбрав интересующий диапазон дат из раскрывающегося списка и нажав кнопку "Ввод!".


*Определитесь, кто Вы:
робот инопланетянин человек

Внимание! Время в таблицах - всемирное. Для получения местного времени необходимо прибавить поправку, которая равна 8 ч.

Смотрите также архив погоды в соседних городах и на ближайших метеорологических станциях:

Погода в Боронган Сити (Филиппины) (76 км)
Погода в Таклобане (Филиппины) (83 км)
Погода в Катбалогане (Филиппины) (125 км)
Погода в Серигао Сити (Филиппины) (139 км)
Погода в Маасине (Филиппины) (140 км)
Погода в Катармане (Филиппины) (203 км)
Погода в Мактане (Филиппины) (210 км)
Погода в Бутуане (Филиппины) (235 км)
Погода в Тагбиларане (Филиппины) (260 км)
Погода в Масбате (Филиппины) (275 км)

Пояснения к столбцам:

Ветер - указаны скорость ветра в м/с - средняя за 10 мин, порывы в срок и между сроками (в фигурных скобках) и направление, откуда дует ветер: С - северный, СВ - северо-восточный, В - восточный, ЮВ - юго-восточный, Ю - южный, ЮЗ - юго-западный, З - западный, СЗ - северо-западный.
Видимость - горизонтальная дальность видимости в метрах или километрах. При видимости от 1 до 10 км при отсутствии осадков обычно наблюдается дымка, при ухудшении видимости до 1 км и менее - туман. В сухую погоду видимость может ухудшаться дымом, пылью или мглою.
Явления - указаны атмосферные явления, наблюдавшиеся в срок или в последний час перед сроком; фигурными скобками обозначены явления, наблюдавшиеся между сроками (за 1-3 часа до срока); квадратными скобками обозначены град или гололедные отложения с указанием их диаметра в мм.
Облачность - указаны через наклонную черту общая и нижняя облачность в баллах и высота нижней границы облаков в метрах; квадратными скобками обозначены формы облаков: Ci - перистые, Cs - перисто-слоистые, Cc - перисто-кучевые, Ac - высококучевые, As - высокослоистые, Sc - слоисто-кучевые, Ns - слоисто-дождевые, Cu - кучевые, Cb - кучево-дождевые. Подробнее классификацию облаков см. в Атласе облаков (PDF).
T - Температура воздуха - температура, измеренная на высоте 2 м над землей.
Td - Температура точки росы - температура, при понижении до которой содержащийся в воздухе водяной пар достигнет насыщения.
f - Относительная влажность воздуха - влажноcть воздуха, измеренная на высоте 2 м над землей.
Te - Эффективная температура - температура, которую ощущает одетый по сезону человек в тени. Характеристика душности погоды. При расчете учитывается влияние влажности воздуха и скорости ветра на теплоощущения человека.
Tes - Эффективная температура на солнце - температура, которую ощущает человек, с поправкой на солнечный нагрев. Характеристика знойности погоды. Зависит от высоты солнца над горизонтом, облачности и скорости ветра. Ночью, в пасмурную погоду, а также при ветре 12 м/с и более поправка равна нулю.
P - Атмосферное давление - приведенное к уровню моря атмосферное давление.
Po - Атмосферное давление - измеренное на уровне метеостанции атмосферное давление.
Tmin - Минимальная температура - минимум температуры воздуха на высоте 2 м над землей.
Tmax - Максимальная температура - максимум температуры воздуха на высоте 2 м над землей.
R - Количество осадков - Количество выпавших осадков за период времени, мм. При наведении курсора мыши на число - период времени, за который выпало указанное количество осадков.
R24 - Количество осадков - Количество выпавших осадков за 24 часа, мм.
S - Снежный покров - Высота снежного покрова, см. При наведении курсора мыши на число - состояние снежного покрова и степень покрытия местности в баллах.